Flag for China Weather past 2 weeks in Fushun, Liaoning, China

Now
81 °F

Passing clouds.


Feels Like: 79 °F
Forecast: 50 / 81 °F
Wind: 8 mph from Southwest

Location: Shenyang / Taoxian

Current Time: Apr 28, 2015 at 3:56:33 PM

Latest Report: Apr 28, 2015 at 3:00 PM


Visibility: N/A

Pressure: 29.86 "Hg

Humidity: 23%

Dew point: 39 °F

Location of FushunLocation

Historic Weather in Fushun — Graph

°F

Fushun temperature yesterday

Maximum temperature yesterday: 84 °F (at 12:00 PM)
Minimum temperature yesterday: 64 °F (at 3:30 AM)
Average temperature yesterday: 74 °F

Past Weeks' High & Low Weather Summary

 TemperatureHumidityPressure
High86 °F (Apr 26, 12:30 PM)93% (Apr 16, 3:00 AM)30.09 "Hg (Apr 16, 3:00 AM)
Low34 °F (Apr 14, 5:00 AM)9% (Apr 20, 1:30 PM)29.42 "Hg (Apr 15, 2:30 PM)
Average59 °F36%29.84 "Hg
* Reported Apr 13 3:00 PM — Apr 28 3:00 PM, Fushun, Weather by CustomWeather, © 2015

Note: Actual official high and low records may vary slightly from our data, if they occured in-between our weather recording intervals... More about our weather records

Advertising

Fushun weather history for previous 24 hours

 ConditionsComfort  
Time TempWeatherWind HumidityBarometerVisibility
3:00 PM
Tue, Apr 28
81 °FPassing clouds.8 mph23%29.86 "HgN/A
2:30 PM79 °FSunny.3 mph24%29.86 "Hg10 mi
2:00 PM79 °FSunny.6 mph24%29.89 "Hg10 mi
1:30 PM79 °FPassing clouds.10 mph24%29.89 "HgN/A
1:00 PM79 °FPassing clouds.8 mph26%29.89 "HgN/A
12:30 PM77 °FPassing clouds.8 mph30%29.89 "HgN/A
11:30 AM77 °FPassing clouds.8 mph30%29.92 "HgN/A
10:30 AM73 °FPassing clouds.10 mph29%29.92 "HgN/A
10:00 AM72 °FPassing clouds.13 mph31%29.92 "HgN/A
9:30 AM72 °FPassing clouds.10 mph27%29.92 "HgN/A
9:00 AM70 °FPassing clouds.10 mph27%29.92 "HgN/A
8:30 AM70 °FPassing clouds.6 mph23%29.92 "HgN/A
8:00 AM68 °FPassing clouds.3 mph28%29.92 "HgN/A
7:30 AM66 °FPassing clouds.6 mph30%29.89 "HgN/A
7:00 AM63 °FSunny.10 mph34%29.89 "Hg10 mi
6:30 AM63 °FSunny.8 mph34%29.89 "Hg10 mi
6:00 AM61 °FSunny.8 mph36%29.86 "Hg10 mi
5:30 AM59 °FSunny.8 mph42%29.86 "Hg10 mi
5:00 AM59 °FSunny.6 mph42%29.86 "Hg10 mi
4:30 AM59 °FClear.6 mph42%29.83 "Hg10 mi
4:00 AM59 °FPassing clouds.3 mph42%29.83 "HgN/A
3:30 AM59 °FPassing clouds.3 mph45%29.83 "HgN/A
3:00 AM61 °FClear.3 mph42%29.83 "Hg10 mi
2:30 AM61 °FClear.1 mph42%29.83 "Hg10 mi
2:00 AM63 °FPassing clouds.3 mph42%29.83 "HgN/A
1:30 AM63 °FPassing clouds.3 mph45%29.83 "HgN/A
1:00 AM63 °FPassing clouds.3 mph45%29.83 "HgN/A
12:30 AM64 °FPassing clouds.3 mph43%29.83 "HgN/A
12:00 AM64 °FPassing clouds.6 mph43%29.83 "HgN/A
11:30 PM
Mon, Apr 27
66 °FPassing clouds.6 mph37%29.83 "HgN/A
11:00 PM66 °FPassing clouds.3 mph35%29.83 "HgN/A
10:30 PM66 °FPassing clouds.6 mph32%29.80 "HgN/A
10:00 PM68 °FPassing clouds.6 mph28%29.80 "HgN/A
9:30 PM70 °FClear.6 mph25%29.80 "Hg10 mi
9:00 PM72 °FPassing clouds.8 mph22%29.80 "HgN/A
8:30 PM72 °FClear.8 mph22%29.77 "Hg10 mi
8:00 PM72 °FPassing clouds.8 mph23%29.77 "HgN/A
7:30 PM73 °FPassing clouds.8 mph25%29.77 "HgN/A
7:00 PM73 °FPassing clouds.6 mph25%29.74 "HgN/A
6:30 PM75 °FSunny.10 mph25%29.74 "Hg10 mi
6:00 PM77 °FSunny.15 mph24%29.71 "Hg10 mi
5:30 PM79 °FPassing clouds.10 mph24%29.71 "HgN/A
5:00 PM79 °FSunny.15 mph24%29.68 "Hg10 mi
4:30 PM81 °FPassing clouds.15 mph23%29.68 "HgN/A
4:00 PM81 °FPassing clouds.15 mph24%29.68 "HgN/A
3:30 PM82 °FPassing clouds.13 mph23%29.68 "HgN/A
3:00 PM82 °FPassing clouds.13 mph21%29.68 "HgN/A
Weather by CustomWeather, © 2015

See weather overviewHow to use our weather pages